Home > Weather > Port St. Lucie > Past weeks

Flag for USA Weather for the Past 2 Weeks in Port St. Lucie, Florida, USA

Now
70 °F

Clear.


Feels Like: 70 °F
Forecast: 58 / 78 °F
Wind: 7 mph from Northwest

Location: Witham Field Airport

Current Time: May 6, 2016 at 12:33:56 AM

Latest Report: May 5, 2016 at 11:55 PM


Visibility: 10 mi

Pressure: 29.84 "Hg

Humidity: 53%

Dew Point: 52 °F

Location of Port St. LucieLocation

Historic Weather in Port St. Lucie — Graph

°F

Port St. Lucie Temperature Yesterday

Maximum temperature yesterday: 84 °F (at 2:47 PM)
Minimum temperature yesterday: 68 °F (at 3:55 AM)
Average temperature yesterday: 73 °F

High & Low Weather Summary for the Past Weeks

 TemperatureHumidityPressure
High95 °F (May 3, 2:47 PM)100% (May 2, 10:47 AM)30.13 "Hg (May 2, 10:47 AM)
Low68 °F (Apr 27, 5:35 AM)22% (Apr 23, 2:50 PM)29.67 "Hg (May 4, 8:47 PM)
Average77 °F66%29.97 "Hg
* Reported Apr 20 11:15 PM — May 5 11:35 PM, Port St. Lucie, Weather by CustomWeather, © 2016

Note: Actual official high and low records may vary slightly from our data, if they occured in-between our weather recording intervals... More about our weather records

Advertising

Port St. Lucie Weather History for the Previous 24 Hours

Scroll right to see more
 ConditionsComfort  
Time TempWeatherWind HumidityBarometerVisibility
11:35 PM
Thu, May 5
72 °FClear.9 mph50%29.84 "Hg10 mi
11:15 PM73 °FClear.12 mph47%29.83 "Hg10 mi
10:55 PM73 °FClear.12 mph50%29.83 "Hg10 mi
10:35 PM73 °FClear.12 mph53%29.83 "Hg10 mi
10:15 PM73 °FClear.7 mph61%29.82 "Hg10 mi
8:47 PM77 °FPassing clouds.N/A51%29.79 "Hg7 mi
6:47 PM84 °FScattered clouds.N/A31%29.76 "Hg7 mi
5:47 PM84 °FScattered clouds.N/A35%29.75 "Hg7 mi
4:47 PM84 °FScattered clouds.N/A35%29.75 "Hg7 mi
3:47 PM84 °FScattered clouds.N/A35%29.75 "Hg7 mi
2:47 PM84 °FScattered clouds.N/A37%29.78 "Hg10 mi
1:47 PM82 °FSunny.N/A32%29.79 "Hg10 mi
12:47 PM82 °FSunny.N/A35%29.81 "Hg10 mi
11:47 AM81 °FSunny.N/A34%29.82 "Hg10 mi
10:47 AM77 °FSunny.N/A39%29.83 "Hg10 mi
9:47 AM75 °FSunny.N/A41%29.82 "Hg10 mi
8:47 AM72 °FSunny.N/A57%29.79 "Hg10 mi
7:50 AM68 °FSunny.N/A69%29.79 "Hg7 mi
6:47 AM68 °FClear.N/A73%29.76 "Hg7 mi
6:35 AM68 °FClear.N/A78%29.76 "Hg10 mi
6:15 AM68 °FClear.13 mph78%29.75 "Hg10 mi
5:55 AM68 °FClear.9 mph78%29.75 "Hg10 mi
5:35 AM68 °FClear.10 mph83%29.74 "Hg10 mi
5:15 AM68 °FClear.9 mph83%29.74 "Hg10 mi
4:55 AM68 °FClear.10 mph83%29.74 "Hg10 mi
4:35 AM68 °FClear.10 mph83%29.74 "Hg10 mi
4:15 AM68 °FClear.13 mph83%29.73 "Hg10 mi
3:55 AM68 °FClear.10 mph83%29.73 "Hg10 mi
3:35 AM70 °FClear.12 mph78%29.73 "Hg10 mi
3:15 AM70 °FClear.14 mph78%29.72 "Hg10 mi
2:55 AM70 °FClear.14 mph83%29.72 "Hg10 mi
2:35 AM70 °FClear.12 mph83%29.71 "Hg10 mi
2:15 AM70 °FClear.14 mph83%29.71 "Hg10 mi
1:55 AM70 °FClear.13 mph88%29.71 "Hg10 mi
1:35 AM72 °FClear.12 mph88%29.71 "Hg10 mi
1:15 AM72 °FClear.13 mph88%29.71 "Hg10 mi
12:55 AM72 °FClear.9 mph88%29.71 "Hg10 mi
12:35 AM72 °FClear.14 mph88%29.70 "Hg10 mi
12:15 AM73 °FClear.12 mph83%29.70 "Hg10 mi
Weather by CustomWeather, © 2016

See weather overviewHow to use our weather pages